Volver al catálogo

CZ-6A DEB

ActivoPO
NORAD 60769·DEBRIS·🇨🇳 China

Lanzado Aug 6, 2024 desde Taiyuan Satellite Launch Center

Loading…

Próximos Pases (próximas 24 horas)

TLE

ActualizadoSource: Space-Track

Época: Sep 14, 2026, 11:28 UTC

1 60769U 24140EU  26257.47836467  .00001220  00000-0  38569-3 0  9995
2 60769  89.0524 267.3309 0046708 305.5637  54.1213 14.39045237107790

Sigue CZ-6A DEB en tiempo real con AllMySat

Download on the App Store